| time (UTC) | temp F | wind direction | speed MPH | gust MPH | rain 1hr in | rain 24hr in | rain mn in | humidity % | barometer mb |
| 20260906211543 | 73 | 313 | 0.0 | 0.0 | 0.00 | 0.00 | 0.00 | 63 | 1019.3 |
| 20260906210043 | 73 | 313 | 0.0 | 0.0 | 0.00 | 0.00 | 0.00 | 61 | 1019.4 |
| 20260906204543 | 72 | 313 | 0.0 | 0.0 | 0.00 | 0.00 | 0.00 | 63 | 1019.2 |
| 20260906203042 | 72 | 312 | 0.0 | 0.0 | 0.00 | 0.00 | 0.00 | 62 | 1019.2 |
| 20260906201609 | 72 | 311 | 0.0 | 0.0 | 0.00 | 0.00 | 0.00 | 62 | 1019.0 |
| 20260906200041 | 73 | 311 | 0.0 | 0.0 | 0.00 | 0.00 | 0.00 | 60 | 1018.9 |
| 20260906194553 | 74 | 311 | 0.0 | 0.0 | 0.00 | 0.00 | 0.00 | 60 | 1018.8 |
| 20260906193044 | 74 | 311 | 0.0 | 0.0 | 0.00 | 0.00 | 0.00 | 61 | 1018.6 |
| 20260906191540 | 75 | 311 | 0.0 | 0.0 | 0.00 | 0.00 | 0.00 | 60 | 1018.4 |
| 20260906190039 | 76 | 308 | 0.0 | 0.0 | 0.00 | 0.00 | 0.00 | 58 | 1018.4 |
| 20260906184539 | 76 | 308 | 0.0 | 0.0 | 0.00 | 0.00 | 0.00 | 57 | 1018.3 |
| 20260906183039 | 77 | 306 | 0.0 | 0.0 | 0.00 | 0.00 | 0.00 | 56 | 1018.0 |
| 20260906181545 | 78 | 306 | 0.0 | 2.0 | 0.00 | 0.00 | 0.00 | 54 | 1017.9 |
| 20260906180040 | 79 | 344 | 0.0 | 1.0 | 0.00 | 0.00 | 0.00 | 53 | 1017.7 |
| 20260906174536 | 79 | 317 | 0.0 | 4.0 | 0.00 | 0.00 | 0.00 | 52 | 1017.6 |
| 20260906173037 | 80 | 307 | 0.0 | 2.0 | 0.00 | 0.00 | 0.00 | 52 | 1017.5 |
| 20260906171536 | 80 | 265 | 0.0 | 2.0 | 0.00 | 0.00 | 0.00 | 51 | 1017.5 |
| 20260906170035 | 81 | 198 | 0.0 | 3.0 | 0.00 | 0.00 | 0.00 | 49 | 1017.2 |
| 20260906164535 | 82 | 167 | 0.0 | 5.0 | 0.00 | 0.00 | 0.00 | 49 | 1017.0 |
| 20260906163046 | 82 | 153 | 0.0 | 6.0 | 0.00 | 0.00 | 0.00 | 48 | 1016.8 |
| 20260906161539 | 83 | 177 | 1.0 | 6.0 | 0.00 | 0.00 | 0.00 | 47 | 1016.8 |
| 20260906160034 | 84 | 96 | 1.0 | 9.0 | 0.00 | 0.00 | 0.00 | 46 | 1016.6 |
| 20260906154535 | 84 | 186 | 1.0 | 8.0 | 0.00 | 0.00 | 0.00 | 46 | 1016.6 |
| 20260906153033 | 85 | 195 | 1.0 | 7.0 | 0.00 | 0.00 | 0.00 | 45 | 1016.5 |
| 20260906151534 | 85 | 257 | 0.0 | 6.0 | 0.00 | 0.00 | 0.00 | 45 | 1016.5 |
| 20260906150033 | 86 | 189 | 1.0 | 7.0 | 0.00 | 0.00 | 0.00 | 44 | 1016.5 |
| 20260906144531 | 86 | 194 | 0.0 | 6.0 | 0.00 | 0.00 | 0.00 | 43 | 1016.5 |
| 20260906143029 | 86 | 190 | 0.0 | 5.0 | 0.00 | 0.00 | 0.00 | 42 | 1016.7 |
| 20260906141528 | 87 | 169 | 0.0 | 4.0 | 0.00 | 0.00 | 0.00 | 41 | 1016.8 |
| 20260906140035 | 87 | 244 | 0.0 | 7.0 | 0.00 | 0.00 | 0.00 | 41 | 1016.9 |
| 20260906134525 | 87 | 175 | 0.0 | 7.0 | 0.00 | 0.00 | 0.00 | 40 | 1017.0 |
| 20260906133032 | 87 | 157 | 0.0 | 7.0 | 0.00 | 0.00 | 0.00 | 39 | 1017.2 |
| 20260906131524 | 88 | 194 | 0.0 | 7.0 | 0.00 | 0.00 | 0.00 | 37 | 1017.4 |
| 20260906130022 | 88 | 219 | 0.0 | 6.0 | 0.00 | 0.00 | 0.00 | 36 | 1017.4 |
| 20260906124521 | 88 | 242 | 0.0 | 3.0 | 0.00 | 0.00 | 0.00 | 36 | 1017.6 |
| 20260906123033 | 87 | 232 | 0.0 | 3.0 | 0.00 | 0.00 | 0.00 | 37 | 1017.7 |
| 20260906121515 | 86 | 182 | 0.0 | 5.0 | 0.00 | 0.00 | 0.00 | 39 | 1017.7 |
| 20260906120012 | 86 | 176 | 0.0 | 4.0 | 0.00 | 0.00 | 0.00 | 38 | 1017.8 |
| 20260906114511 | 85 | 175 | 0.0 | 5.0 | 0.00 | 0.00 | 0.00 | 38 | 1018.1 |
| 20260906113012 | 85 | 202 | 0.0 | 5.0 | 0.00 | 0.00 | 0.00 | 40 | 1018.2 |
| 20260906111504 | 84 | 202 | 0.0 | 0.0 | 0.00 | 0.00 | 0.00 | 43 | 1018.5 |
| 20260906104605 | 82 | 198 | 0.0 | 0.0 | 0.00 | 0.00 | 0.00 | 41 | 1018.7 |
| 20260906103055 | 81 | 190 | 0.0 | 0.0 | 0.00 | 0.00 | 0.00 | 46 | 1018.9 |
| 20260906101551 | 80 | 183 | 0.0 | 0.0 | 0.00 | 0.00 | 0.00 | 49 | 1019.2 |
| 20260906100046 | 79 | 271 | 0.0 | 0.0 | 0.00 | 0.00 | 0.00 | 46 | 1019.5 |
| 20260906094542 | 79 | 144 | 0.0 | 0.0 | 0.00 | 0.00 | 0.00 | 48 | 1019.6 |
| 20260906093049 | 77 | 157 | 0.0 | 0.0 | 0.00 | 0.00 | 0.00 | 52 | 1020.0 |
| 20260906091534 | 77 | 133 | 0.0 | 0.0 | 0.00 | 0.00 | 0.00 | 53 | 1020.3 |
| 20260906090033 | 75 | 157 | 0.0 | 0.0 | 0.00 | 0.00 | 0.00 | 54 | 1020.5 |
| 20260906084527 | 75 | 161 | 0.0 | 0.0 | 0.00 | 0.00 | 0.00 | 55 | 1020.7 |
| 20260906083024 | 74 | 155 | 0.0 | 0.0 | 0.00 | 0.00 | 0.00 | 57 | 1020.8 |
| 20260906081541 | 72 | 168 | 0.0 | 0.0 | 0.00 | 0.00 | 0.00 | 60 | 1020.9 |
| 20260906080015 | 71 | 167 | 0.0 | 0.0 | 0.00 | 0.00 | 0.00 | 61 | 1021.2 |
| 20260906074510 | 71 | 162 | 0.0 | 0.0 | 0.00 | 0.00 | 0.00 | 63 | 1021.2 |
| 20260906073013 | 70 | 170 | 0.0 | 0.0 | 0.00 | 0.00 | 0.00 | 64 | 1021.3 |
| 20260906071501 | 69 | 170 | 0.0 | 0.0 | 0.00 | 0.00 | 0.00 | 65 | 1021.3 |
| 20260906070120 | 68 | 170 | 0.0 | 0.0 | 0.00 | 0.00 | 0.00 | 69 | 1021.6 |
| 20260906064554 | 67 | 174 | 0.0 | 0.0 | 0.00 | 0.00 | 0.00 | 68 | 1021.5 |
| 20260906063049 | 66 | 329 | 0.0 | 0.0 | 0.00 | 0.00 | 0.00 | 71 | 1021.5 |
| 20260906061558 | 65 | 329 | 0.0 | 0.0 | 0.00 | 0.00 | 0.00 | 74 | 1021.4 |
| 20260906060040 | 65 | 329 | 0.0 | 0.0 | 0.00 | 0.00 | 0.00 | 72 | 1021.3 |
| 20260906054535 | 63 | 329 | 0.0 | 0.0 | 0.00 | 0.00 | 0.00 | 75 | 1021.1 |
| 20260906053037 | 62 | 329 | 0.0 | 0.0 | 0.00 | 0.00 | 0.00 | 76 | 1021.0 |
| 20260906051531 | 62 | 329 | 0.0 | 0.0 | 0.00 | 0.00 | 0.00 | 75 | 1021.0 |
| 20260906050030 | 62 | 329 | 0.0 | 0.0 | 0.00 | 0.00 | 0.00 | 75 | 1020.8 |
| 20260906044527 | 62 | 303 | 0.0 | 0.0 | 0.00 | 0.00 | 0.00 | 73 | 1020.9 |
| 20260906043038 | 64 | 304 | 0.0 | 0.0 | 0.00 | 0.00 | 0.00 | 70 | 1020.8 |
| 20260906041525 | 64 | 330 | 0.0 | 0.0 | 0.00 | 0.00 | 0.00 | 72 | 1020.8 |
| 20260906040026 | 63 | 335 | 0.0 | 0.0 | 0.00 | 0.00 | 0.00 | 74 | 1020.8 |
| 20260906034527 | 63 | 335 | 0.0 | 0.0 | 0.00 | 0.00 | 0.00 | 74 | 1020.8 |
| 20260906033024 | 63 | 335 | 0.0 | 0.0 | 0.00 | 0.00 | 0.00 | 72 | 1020.8 |
| 20260906031521 | 63 | 335 | 0.0 | 0.0 | 0.00 | 0.00 | 0.00 | 73 | 1020.4 |
| 20260906030022 | 63 | 335 | 0.0 | 0.0 | 0.00 | 0.00 | 0.00 | 73 | 1020.6 |
| 20260906024517 | 64 | 335 | 0.0 | 0.0 | 0.00 | 0.00 | 0.00 | 71 | 1020.8 |
| 20260906023016 | 64 | 335 | 0.0 | 0.0 | 0.00 | 0.00 | 0.00 | 71 | 1021.0 |
| 20260906021514 | 65 | 335 | 0.0 | 0.0 | 0.00 | 0.00 | 0.00 | 69 | 1020.8 |
| 20260906020011 | 65 | 335 | 0.0 | 0.0 | 0.00 | 0.00 | 0.00 | 68 | 1020.7 |
| 20260906014513 | 65 | 335 | 0.0 | 0.0 | 0.00 | 0.00 | 0.00 | 69 | 1020.6 |
| 20260906013010 | 66 | 335 | 0.0 | 0.0 | 0.00 | 0.00 | 0.00 | 68 | 1020.4 |
| 20260906011506 | 67 | 335 | 0.0 | 0.0 | 0.00 | 0.00 | 0.00 | 66 | 1020.5 |
| 20260906010005 | 67 | 335 | 0.0 | 0.0 | 0.00 | 0.00 | 0.00 | 65 | 1020.4 |
| 20260906004505 | 67 | 336 | 0.0 | 0.0 | 0.00 | 0.00 | 0.00 | 66 | 1020.3 |
| 20260906003004 | 67 | 336 | 0.0 | 0.0 | 0.00 | 0.00 | 0.00 | 66 | 1020.4 |
| 20260906001504 | 68 | 336 | 0.0 | 0.0 | 0.00 | 0.00 | 0.00 | 65 | 1020.5 |
| 20260906000003 | 68 | 344 | 0.0 | 0.0 | 0.00 | 0.00 | 0.00 | 65 | 1020.4 |
| 20260905234501 | 67 | 9 | 0.0 | 0.0 | 0.00 | 0.00 | 0.00 | 66 | 1020.3 |
| 20260905233101 | 67 | 13 | 0.0 | 0.0 | 0.00 | 0.00 | 0.00 | 66 | 1020.2 |
| 20260905231558 | 69 | 13 | 0.0 | 0.0 | 0.00 | 0.00 | 0.00 | 62 | 1020.2 |
| 20260905230057 | 69 | 12 | 0.0 | 0.0 | 0.00 | 0.00 | 0.00 | 60 | 1020.2 |
| 20260905224605 | 69 | 13 | 0.0 | 0.0 | 0.00 | 0.00 | 0.00 | 63 | 1020.1 |
| 20260905223053 | 69 | 13 | 0.0 | 0.0 | 0.00 | 0.00 | 0.00 | 63 | 1020.0 |
| 20260905221551 | 70 | 13 | 0.0 | 0.0 | 0.00 | 0.00 | 0.00 | 61 | 1020.0 |
| 20260905220048 | 70 | 5 | 0.0 | 0.0 | 0.00 | 0.00 | 0.00 | 60 | 1019.9 |
| 20260905214547 | 71 | 360 | 0.0 | 0.0 | 0.00 | 0.00 | 0.00 | 61 | 1019.9 |
| 20260905213046 | 70 | 360 | 0.0 | 0.0 | 0.00 | 0.00 | 0.00 | 60 | 1019.7 |